Location: Gilchrist
(26.7753°N, 81.8923°W)
Time: 01:35:28
(UTC+00:00)

Daily predictions for brighter satellites

Satellite Brightness Start Highest point End
(mag) Time Altitude Azimuth Time Altitude Azimuth Time Altitude Azimuth
Cosmos 2208 Rocket 4.3 00:22:07 10° N 00:27:28 56° ENE 00:32:47 10° SSE
ERS-2 2.7 00:26:53 10° NNE 00:30:15 36° E 00:33:36 10° SSE
H-2A R/B 2.6 00:27:17 10° S 00:32:06 58° W 00:36:57 10° NNW
Cosmos 1606 2.7 00:29:16 10° S 00:32:57 59° E 00:36:40 10° NNE
FALCON 9 DEB 3.2 00:30:05 10° NNW 00:33:00 46° NE 00:35:55 10° SE
Cosmos 1503 Rocket 4.2 00:28:16 10° S 00:33:13 50° ESE 00:38:13 10° NNE
Helios 1A Rocket 4.0 00:31:46 10° SE 00:35:17 28° ENE 00:38:49 10° NNE
Cosmos 540 Rocket 4.4 00:30:38 10° NNW 00:35:32 49° WSW 00:40:26 10° S
ISS -1.9 00:34:50 10° SSE 00:36:31 13° SE 00:38:12 10° E
FALCON 9 DEB 2.9 00:34:23 10° NNW 00:37:22 61° NE 00:40:21 10° SE
Cosmos 1603 4.4 00:33:17 10° NNW 00:38:46 56° WSW 00:44:13 10° S
CZ-4 R/B 2.2 00:35:13 10° S 00:39:14 55° W 00:43:12 10° NNW
Cosmos 1862 3.3 00:36:19 10° N 00:40:20 72° E 00:44:21 10° S
Cosmos 1743 Rocket 4.1 00:37:05 10° NNE 00:41:08 38° E 00:45:13 10° SSE
CZ-2C R/B 3.8 00:36:37 10° N 00:41:53 50° WNW 00:47:14 10° SSW
GPS 2-18 Rocket1 4.0 00:40:12 10° WSW 00:43:36 32° S 00:46:36 12° ESE
SAR-Lupe-4 3.6 00:43:23 10° NNE 00:46:58 88° W 00:50:31 10° SSW
GEOS 3 Rocket 3.9 00:43:39 10° SE 00:48:53 58° ENE 00:54:09 10° NNW
Cosmos 1933 4.1 00:46:14 10° SSE 00:49:51 32° E 00:53:27 10° NNE
OAO 3 Rocket 3.1 00:45:39 10° SW 00:50:14 67° SSE 00:54:52 10° ENE
Cosmos 1500 Rocket 3.7 00:46:53 10° N 00:51:08 52° E 00:55:19 10° SSE
Tianhe-1 1.0 00:48:54 10° SW 00:51:57 59° SE 00:55:02 10° ENE
Cosmos 1844 Rocket 4.4 00:48:02 10° SW 00:53:07 37° WNW 00:58:14 10° N
Intercosmos 25 Rocket 4.4 00:50:20 10° NNE 00:53:41 24° ENE 00:55:31 16° ESE
FALCON 9 DEB 2.7 00:51:34 10° NW 00:54:36 73° NE 00:56:46 17° SE
Cosmos 2278 Rocket 3.1 00:50:10 10° SSE 00:54:47 26° ESE 00:59:24 10° NE
Cosmos 1782 4.3 00:54:12 14° ESE 00:56:00 19° E 00:58:50 10° NE
SJ 16-02 3.4 00:59:40 11° E 00:59:40 11° E 01:00:17 10° ENE
CSL-04 Debris 4.2 00:54:31 10° SSE 00:59:57 88° WSW 01:05:23 10° NNW
MetOp-A 4.2 00:57:51 10° SSE 01:03:05 58° ENE 01:08:20 10° N
YAOGAN 1 4.4 01:01:36 10° SSW 01:05:24 31° W 01:09:14 10° NW
Mugunghwa Rocket 3.9 00:59:26 10° WSW 01:05:42 73° SSE 01:11:46 12° E
IUS-13 SRM-1 3.6 01:03:57 10° S 01:05:21 17° SSE 01:05:21 17° SSE
Intercosmos 24 3.8 01:02:57 10° S 01:07:03 57° E 01:10:32 10° NNE
Cosmos 1354 Rocket 4.1 01:02:30 10° SSW 01:07:43 82° WNW 01:12:57 10° NNE
SJ-6B 3.4 01:05:30 19° SE 01:07:48 38° ENE 01:11:28 10° N
Okean-O 4.0 01:03:56 10° SSW 01:08:02 39° W 01:12:11 10° NNW
Sich 1 3.9 01:05:08 10° NNE 01:08:59 30° E 01:10:56 21° SE
CSL-04 Rocket 3.8 01:04:44 10° S 01:10:00 77° WSW 01:15:20 10° NNW
Milstar 3 4.5 00:49:12 10° WSW 01:11:17 80° SSE 01:21:54 10° E
Cosmos 1151 Rocket 3.7 01:09:28 18° SE 01:11:59 32° E 01:15:54 10° NNE
ATLAS 5 CENTAUR R/B 3.5 01:10:50 10° N 01:16:15 32° ENE 01:19:47 20° ESE
FALCON 9 DEB 4.3 01:24:59 10° WNW 01:27:41 30° SW 01:28:47 23° SSW
Cosmos 1745 Rocket 3.9 01:26:35 10° N 01:32:43 73° E 01:37:11 19° SSE
SL-4 R/B 2.6 01:29:07 10° NW 01:33:32 61° SW 01:35:38 31° SSE
Cosmos 1709 Rocket 4.5 01:29:08 10° NNE 01:34:48 39° E 01:36:46 31° ESE
GPS 2-17 Rocket1 3.8 01:30:56 10° WSW 01:35:18 37° S 01:36:15 33° SSE
Cosmos 1242 Rocket 3.9 01:35:48 10° SSW 01:39:11 39° W 01:42:32 10° N
Cosmos 1833 Rocket 4.4 01:36:09 10° NNE 01:39:25 15° ENE 01:39:57 15° ENE
USA 186 3.1 01:38:39 22° SW 01:39:27 27° W 01:41:37 10° NW
Resurs 01 Rocket 2.6 01:41:40 29° ENE 01:41:40 29° ENE 01:45:25 10° NNE
MOS 1 4.2 01:41:31 31° SSE 01:44:17 71° ENE 01:49:56 10° N
Meteor 1-25 Rocket 4.2 01:38:35 10° N 01:44:25 71° E 01:47:11 32° SSE
CZ-2C R/B 4.3 01:41:07 10° NNE 01:44:53 38° E 01:44:53 38° E
BREEZE-M (TANK) 3.6 01:37:20 10° NW 01:45:46 44° WSW 01:47:02 31° S
Cosmos 1515 Rocket 4.3 01:53:19 36° ENE 01:53:19 36° ENE 01:56:31 10° NNE
Cosmos 2315 Rocket 4.0 01:47:37 11° S 01:53:42 89° E 02:00:06 10° N
X-37B 3.2 01:52:53 10° N 01:54:18 13° NNE 01:54:18 13° NNE
OBJECT-B 2.5 01:55:48 25° SW 01:56:42 29° W 01:59:34 10° NW
CZ-2C R/B 3.6 01:56:04 10° SW 01:56:31 13° SW 01:56:31 13° SW
USA 267 3.6 02:03:08 34° S 02:05:59 58° SW 02:12:25 10° NW
Cosmos 1328 Rocket 4.0 02:05:04 35° SSW 02:06:43 60° W 02:11:05 10° N
Cosmos 1633 Rocket 3.0 02:03:54 10° N 02:07:58 72° NE 02:07:58 72° NE
ISS -1.9 02:10:01 10° WSW 02:13:04 31° NW 02:13:26 30° NNW
MetOp-B 4.4 02:18:34 52° ENE 02:18:34 52° ENE 02:23:21 10° N
Ariane Rocket 3.6 02:16:49 38° SSW 02:18:17 50° W 02:23:12 10° NNW
Cosmos 2082 Rocket 4.0 02:20:26 10° NNE 02:23:13 18° NE 02:23:13 18° NE
Tianhe-1 4.1 02:26:35 10° WNW 02:28:15 16° NW 02:28:15 16° NW
OAO 3 Rocket 4.2 02:29:29 10° W 02:33:52 40° NNW 02:34:13 39° N
Cosmos 1943 Rocket 4.4 02:39:12 12° NE 02:39:12 12° NE 02:39:41 10° NE
SJ 16-02 2.6 02:36:32 37° W 02:36:54 38° WNW 02:41:02 10° N
COSMOS 2406 3.7 02:32:21 10° N 02:36:56 49° NNE 02:36:56 49° NNE
Cosmos 2278 Rocket 4.0 02:33:49 10° SW 02:38:39 29° WNW 02:43:31 10° N
DELTA 2 R/B (1) 3.8 02:33:36 10° WNW 02:38:23 64° W 02:38:23 64° W
Iridium 4 Rocket 4.0 02:42:49 60° NNE 02:42:49 60° NNE 02:47:39 10° N
Meteor 1-14 Rocket 4.5 02:41:23 10° NNW 02:46:52 65° W 02:46:52 65° W
ATLAS 5 CENTAUR R/B 3.5 02:55:07 10° NW 03:00:57 38° WSW 03:01:21 38° WSW
Mugunghwa Rocket 4.3 02:54:58 10° W 03:00:08 61° W 03:00:08 61° W
CZ-4C R/B 3.0 02:56:31 10° NNW 03:04:31 86° ENE 03:04:45 85° ESE
Resurs 01 Rocket 4.3 03:19:13 15° WNW 03:19:13 15° WNW 03:20:53 10° NW
ATLAS 2AS CENTAUR R/B 4.1 03:14:46 10° N 03:19:41 28° NE 03:19:41 28° NE
Cosmos 1833 Rocket 4.0 03:18:06 10° NNW 03:21:40 36° NW 03:21:40 36° NW
Milstar 3 3.5 03:44:18 10° W 03:56:13 73° WNW 03:56:13 73° WNW
Cosmos 2082 Rocket 4.4 04:03:12 10° NW 04:05:04 20° NW 04:05:04 20° NW
Centaur D AC-29 3.6 02:41:12 10° WSW 04:19:09 75° WSW 04:19:09 75° WSW
CZ-2D R/B 4.5 06:31:38 10° NNE 06:33:07 19° NNE 06:33:07 19° NNE
USA 215 4.4 06:39:06 37° NE 06:39:06 37° NE 06:44:58 10° NNW
Resurs 1-4 Rocket 4.4 06:37:46 10° NNE 06:39:15 19° NNE 06:39:15 19° NNE
USA 281 4.3 06:49:16 40° NE 06:49:16 40° NE 06:54:12 10° N
Cosmos 1980 Rocket 4.3 06:54:10 22° ENE 06:54:10 22° ENE 06:56:30 10° NE
Cosmos 2227 Rocket 3.8 07:07:22 10° N 07:10:57 31° NNE 07:10:57 31° NNE
Cosmos 2297 Rocket 3.9 07:09:44 10° N 07:12:27 28° N 07:12:27 28° N
SL-16 R/B 4.4 07:26:48 15° ESE 07:27:05 15° E 07:30:14 10° ENE
IDEFIX/ARIANE 42P 3.4 07:44:42 10° NNE 07:48:54 48° ENE 07:48:54 48° ENE
Cosmos 2322 Rocket 4.1 07:52:58 20° ESE 07:54:18 21° E 07:58:28 10° NE
SL-16 R/B 3.6 08:00:36 33° NW 08:00:36 33° NW 08:04:08 10° NNW
NOSS 3-2 (A) 4.0 08:00:10 42° ESE 08:00:10 42° ESE 08:05:19 10° NE
Lacrosse 4 Rocket 4.1 08:02:37 14° NNW 08:02:37 14° NNW 08:03:28 10° NNW
Timation 1 Rocket 4.5 07:54:13 10° NNW 08:00:10 69° ENE 08:00:28 68° E
Meteor 1-24 Rocket 3.9 08:01:33 67° ENE 08:01:33 67° ENE 08:06:31 10° NNE
Cosmos 1447 Rocket 4.4 08:03:04 78° NNW 08:03:04 78° NNW 08:09:04 10° N
ADEOS II 3.3 08:03:43 10° N 08:06:52 31° NNW 08:06:52 31° NNW
ARIANE 5 R/B 3.1 08:04:39 10° NNE 08:09:33 48° E 08:09:44 48° ESE
IRS-P3 4.3 08:04:26 10° NNE 08:09:39 67° E 08:09:39 67° E
APEX 4.3 08:07:53 10° NNW 08:13:04 71° ENE 08:14:48 47° SE
USA 238 DEB 4.3 08:12:01 38° SSE 08:13:34 44° ESE 08:19:47 10° NE
USA 238 4.3 08:12:07 37° SSE 08:13:41 44° ESE 08:19:53 10° NE
BREEZE-M R/B 4.1 08:15:07 29° ESE 08:15:07 29° ESE 08:17:25 10° ENE
ADEOS Rocket 3.4 08:12:28 39° SSE 08:15:37 86° ENE 08:23:21 10° NNW
CZ-2D R/B 4.4 08:13:36 10° NW 08:14:26 12° NW 08:14:26 12° NW
Cosmos 2360 Rocket 4.4 08:13:37 11° SE 08:17:05 18° E 08:20:47 10° ENE
CZ-4B R/B 3.6 08:15:12 10° NNE 08:20:16 70° ESE 08:20:30 69° ESE
Meteor 2-5 Rocket 4.0 08:21:35 52° NW 08:21:35 52° NW 08:26:25 10° N
CZ-4C R/B 4.0 08:29:52 54° N 08:29:52 54° N 08:33:08 10° N
Atlas Centaur 2 2.7 08:28:29 56° SW 08:30:10 73° SSE 08:36:51 10° ENE
Cosmos 407 Rocket 3.8 08:25:21 10° NNW 08:29:42 54° NW 08:29:42 54° NW
Cosmos 292 Rocket 3.8 08:32:03 67° NW 08:32:03 67° NW 08:36:31 10° N
ERS-1 4.4 08:29:02 10° NNE 08:34:11 89° ESE 08:34:50 69° SSW
Cosmos 1980 Rocket 3.6 08:35:56 24° NW 08:35:56 24° NW 08:39:55 10° NNW
CENTAUR R/B 2.6 08:34:15 43° SSE 08:35:45 56° ESE 08:41:46 10° NE
Cosmos 405 4.0 08:35:24 10° N 08:38:01 44° NNE 08:38:01 44° NNE
CZ-2C R/B 3.3 08:41:33 14° ESE 08:41:33 14° ESE 08:42:05 10° ESE
Cosmos 2233 Rocket 4.2 08:34:19 10° NNW 08:40:08 46° W 08:40:08 46° W
Spot 1 4.2 08:46:49 61° W 08:46:49 61° W 08:51:23 10° NNW
Cosmos 1331 Rocket 4.5 08:47:14 29° SSE 08:49:38 55° ESE 08:54:40 10° NNE
Cosmos 1452 Rocket 3.7 08:49:49 50° W 08:50:23 52° WNW 08:55:32 10° N
GPS 2-14 Rocket1 4.0 08:53:14 28° SSE 08:53:14 28° SSE 08:55:55 10° ESE
PAYLOAD A 4.2 08:49:11 10° NNE 08:53:49 61° E 08:56:14 27° S
Cosmos 2227 Rocket 4.3 08:52:13 10° NW 08:52:41 12° WNW 08:52:41 12° WNW
Aurora 2 Rocket 4.4 08:54:34 25° S 08:56:26 30° SSE 09:03:00 10° E
Cosmos 1954 Rocket 3.9 08:53:42 10° NNW 08:58:59 83° WSW 09:04:17 10° S
CZ-2D R/B 3.6 08:56:45 10° N 09:01:06 59° WNW 09:01:54 50° WSW
Cosmos 1346 Rocket 2.7 09:04:05 55° W 09:04:16 56° W 09:08:06 10° N
GPS 2-15 Rocket1 3.9 09:09:08 32° SSW 09:09:28 33° S 09:13:37 10° ESE
Cosmos 2333 Rocket 4.3 09:05:29 10° SSE 09:09:55 23° ESE 09:14:22 10° NE
Spot 4 Rocket 4.0 09:05:19 10° N 09:10:24 64° WNW 09:12:53 30° SSW
CZ-2C R/B 2.5 09:05:17 10° NNE 09:10:28 88° ESE 09:14:09 20° SSW
SEDSat Delta rocket 3.3 09:08:14 36° WSW 09:10:31 88° NNW 09:15:22 10° ENE
SL-16 R/B 2.5 09:08:41 34° WSW 09:10:40 48° WNW 09:16:08 10° N
Cosmos 1110 Rocket 3.9 09:08:20 32° SSW 09:10:48 76° WNW 09:15:59 10° NNE
Cosmos 2082 4.3 09:07:07 10° NW 09:12:07 32° WSW 09:12:48 31° WSW
Cosmos 389 Rocket 4.1 09:09:21 10° NNE 09:12:32 34° E 09:15:41 10° SSE
PSLV R/B 4.4 09:09:11 10° NNE 09:13:14 47° E 09:17:18 10° S
ALOS 3.1 09:11:18 10° NNE 09:15:49 49° E 09:20:19 10° S
Cosmos 1455 2.6 09:14:15 10° N 09:18:04 64° E 09:21:53 10° SSE
SL-08 R/B 3.3 09:14:58 14° S 09:19:02 59° WSW 09:23:39 10° NNW
Cosmos 1703 3.2 09:16:45 23° S 09:19:05 86° E 09:22:57 10° N
Cosmos 1892 Rocket 4.2 09:21:24 31° WSW 09:22:16 34° W 09:26:13 10° NNW
CZ-3 Stage 3 4.2 09:24:03 12° S 09:25:20 13° S 09:26:55 10° SE
NOSS 3-2 (C) 3.3 09:24:42 25° SW 09:27:46 58° WNW 09:33:34 10° NNE
IDEFIX/ARIANE 42P 4.5 09:26:37 10° NW 09:28:54 13° WNW 09:29:42 12° WNW
Cosmos 1741 Rocket 4.4 09:28:25 10° N 09:33:37 67° ENE 09:38:47 10° SSE
Cosmos 1484 Rocket 3.4 09:31:34 10° NNE 09:35:23 55° E 09:39:07 10° S
Okean 1-7 Rocket 4.0 09:34:23 19° SW 09:37:15 43° W 09:41:37 10° N
Cosmos 2322 Rocket 2.9 09:34:49 20° WSW 09:38:00 36° WNW 09:43:11 10° N
USA 32 4.1 09:35:24 10° NNW 09:40:32 56° W 09:45:39 10° SSW
Meteor 2-10 Rocket 4.4 09:38:53 10° NNW 09:43:46 32° W 09:48:30 10° SSW
CZ-2C R/B 3.7 09:40:58 10° N 09:44:33 32° WNW 09:47:05 17° SW
METEOR-M 4.2 09:41:51 10° NNE 09:47:13 82° ESE 09:52:33 10° S
SL-24 R/B 3.8 09:43:46 10° SSE 09:47:24 80° ENE 09:51:18 10° N
ARIANE 5 R/B 4.3 09:45:39 10° NW 09:48:09 14° WNW 09:50:05 11° W
Cosmos 2058 Rocket 3.3 09:45:23 10° NNW 09:49:45 51° W 09:54:06 10° SSW
Cosmos 2263 Rocket 2.4 09:46:10 10° NNW 09:51:37 50° WSW 09:57:03 10° S
COSMOS 2428 3.9 09:50:11 10° S 09:55:31 43° ESE 10:00:53 10° NE
Cosmos 2360 Rocket 2.7 09:55:25 10° SW 10:00:38 42° WNW 10:05:59 10° N
Cosmos 2219 Rocket 2.7 09:55:16 10° S 10:00:49 62° ESE 10:06:24 10° NNE
CCE 1 Rocket 3.4 09:57:28 13° WSW 10:01:10 66° SSE 10:05:00 10° E
IRAS Rocket 4.2 09:58:05 10° S 10:03:36 70° WSW 10:09:11 10° NNW
Intelsat 5-3 Rocket 3.1 10:01:33 10° WSW 10:09:14 57° S 10:12:35 10° E
Cosmos 1441 Rocket 3.9 10:06:15 10° SSW 10:09:52 37° W 10:13:34 10° NNW
Cosmos 1241 Rocket 4.5 10:04:47 10° NNW 10:11:06 65° WSW 10:17:16 10° SSE
CZ-3B R/B 1.9 10:08:32 10° W 10:11:18 51° S 10:17:17 10° ESE
Cosmos 1992 Rocket 4.5 10:06:46 10° S 10:11:53 64° ESE 10:17:01 10° NNE
Cosmos 1602 Rocket 3.9 10:08:04 10° SSW 10:12:09 42° W 10:16:18 10° N
Cosmos 1758 Rocket 3.6 10:09:04 10° S 10:13:28 82° W 10:17:55 10° N
SWIFT 3.4 10:12:03 10° WSW 10:15:53 33° S 10:19:43 10° ESE
BREEZE-M DEB (TANK) 2.9 10:11:12 10° NW 10:17:23 59° SW 10:19:59 10° SSE
CZ-2C R/B 2.8 10:16:51 10° WSW 10:18:03 12° SW 10:19:15 10° SSW
Atlas Centaur 2 2.8 10:12:31 10° W 10:19:48 67° N 10:25:32 10° ENE
